Погода в Армавире

Поиск расширенной информации на нашем сайте:

Полезная информация:

Новости сайта



02.01.2020
Опубликован Долгосрочный прогноз погоды по городам России и ближнего зарубежья на январь 2020 года.
Карты: Прогноз на январь и февраль 2020 года, Сравнение прогнозируемой аномалии приземной температуры воздуха на январь 2020 года по разным моделям.




Погода в Армавире - сегодня

Время (UTC), дата Ветер
(°,м/с) 
Видим.   Явления Облачность Т
(°С)
Тd
(°С)
f(%) Тe
(°С)
Pmin
(гПа)
dP
(гПа)
Po
(мм)
O2
(г/м3)
Тmin Tmax R s Состояние
почвы
15 27.03.20 100 (В) 5{15}  10 км    6/0 верхняя 
[Ci fib]
+16.3 -5.6 22 +16  1017.2  -0.4  749  285    +18.1       
18 27.03.20 080 (В) 10 км    ясно 
+10.7 +1.1 51 +10  1017.4  0.1  749  290           
21 27.03.20 080 (В) 10 км    ясно 
+8.9 -5.9 35 +8  1016.3  -1.2  748  292           
00 28.03.20 110 (В) 5{10}  10 км    ясно 
+6.8 -5.6 41 +5  1015.3  -1.1  747  294           
03 28.03.20 120 (ЮВ) 10 км    6/0 верхняя 
[Ci fib]
+4.5 -1.2 66 +3  1014.8  -0.6  746  296  +4.5         
06 28.03.20 120 (ЮВ) 10 км    10/0 верхняя 
[Ci]
+7.6 +0.6 61 +6  1013.8  -0.9  746  292  +4.2         
09 28.03.20 120 (ЮВ) 5{11}  10 км    10/0 верхняя 
[Ci]
+14.6 +0.5 38 +14  1011.3  -1.9  744  285           
12 28.03.20 120 (ЮВ) 6-11{13}  10 км    10/0 верхняя 
[Cs]
+16.9 +0.6 33 +17  1009.9  -1.3  743  282           
15 28.03.20 100 (В) 4{15}  10 км    10/0 верхняя 
[Ci]
+15.9 +1.1 37 +16  1009.2  -0.7  743  283    +17.9       
18 28.03.20 100 (В) 10 км    5/0 верхняя 
[Ci fib]
+12.7 +3.7 54 +13  1009  -0.4  743  285           
21 28.03.20 110 (В) 4{13}  10 км    8/0 верхняя 
[Ci]
+10.3 -0.2 48 +9  1008.2  -1  742  288           
00 29.03.20 100 (В) 3{11}  10 км    8/0 средняя 
[Ac trans]
+7.6 -1.2 54 +7  1006.6  -1.8  740  290           
03 29.03.20 тихо ()   10 км    3/0 верхняя 
[Ci fib]
+3.8 -1.8 67 +4  1005.9  -0.9  740  294  +3.8         
06 29.03.20 130 (ЮВ) 10 км    8/0 средняя 
[Ac trans]
+9.3 -0.3 51 +9  1005.3  -0.2  740  288  +2         
09 29.03.20 320 (СЗ) 10 км    ясно 
+17.1 +3.7 41 +18  1003.7  -1.1  739  280           
12 29.03.20 310 (СЗ) 10 км    4/0 верхняя 
[Ci fib]
+18.3 +4 39 +19  1002.6  -0.9  738  278           
15 29.03.20 290 (З) 10 км    5/0 средняя, верхняя 
[Ac trans|Cc]
+15 +4.7 50 +15  1003  0.2  738  281    +18.3       
18 29.03.20 тихо ()   10 км    9/0 средняя 
[Ac trans]
+10.2 +4.3 67 +10  1003.7  0.3  739  286           
21 29.03.20 тихо ()   10 км    10/0 средняя 
[Ac As]
+10.2 +5.4 72 +10  1003.4  -0.2  738  286           
00 30.03.20 270 (З) 10 км    10/10 600 м 
[Sc]
+10.9 +6.7 75 +11  1003.5  0.2  738  285           
03 30.03.20 290 (З) 10 км    10/10 600 м 
[Sc]
+9.7 +4.2 69 +9  1004.2  0.6  739  287  +9.4         
06 30.03.20 280 (З) 10 км  слаб. дождь  10/10 300 м 
[Frnb|Ns]
+9.3 +7.3 87 +9  1005.2  740  287  +9.2         
09 30.03.20 220 (ЮЗ) 10 км  слаб. дождь  10/10 300 м 
[Frnb|Ns]
+10.2 +8.4 89 +10  1005.8  0.6  740  286           
12 30.03.20 210 (ЮЗ) 10 км  слаб. дождь  10/10 300 м 
[Frnb|Ns]
+11.8 +9.2 84 +12  1005.9  0.2  740  284           
15 30.03.20 200 (Ю) 10 км  {дождь}  10/10 600 м кучево-дожд. 
[Cb cap]
+12.3 +9.7 84 +15  1006.5  0.6  741  284    +12.3     
Время (UTC), дата Ветер
(°,м/с) 
Видим.   Явления Облачность Т
(°С)
Тd
(°С)
f(%) Тe
(°С)
Pmin
(гПа)
dP
(гПа)
Po
(мм)
O2
(г/м3)
Тmin Tmax R s Состояние
почвы

Для получения пояснительной информации подведите курсор к названию столбца.

ПОГОДА в Армавире - архив

Всё, что Вы хотите узнать о погоде в Армавире - удобно и подробно!

Выберите нужную дату (начиная с 1 января 2019* года) и нажмите кнопку "Найти".
Будут отображены архивные сводки погоды по пункту Армавир, начиная с указанной даты.


Отображать данные в формате CSV (для использования в таблицах Excel)


Внимание! Наш архив погоды предназначен исключительно для личного некоммерческого использования в познавательных целях. Если Вам необходимы официальные справки о состоянии погоды (для производственных, юридических, коммерческих и т.п. целей), обращайтесь в органы Росгидромета.

*Примечание: данная дата относится к архиву по метеостанциям СССР (Россия, СНГ, Балтия).
Архив по метеостанциям Зарубежной Европы и Азии (кроме Китая) хранится 10 дней, по другим регионам земного шара (Китай, Африка, Америка, Австралия, Океания) - 1 день.

Армавир - район местоположения метеостанции


Название, широта, долгота, высота метеостанции:
Армавир 45°ш. 41.1°д. 159 м над ур. моря [Российская Федерация]

Дополнительная информация

В oтличие oт бoльшинства пoгoдных сайтoв мы публикуем пoдрoбную метеoинфoрмацию в детальнoм прoфессиoнальнoм фoрмате.

Характеристики температуры и влажнoсти вoздуха измеряются на высoте 2 м в тени вдали oт зданий и деревьев.
Скoрoсть ветра измеряется на высoте 10 м (на урoвне рoста челoвека скoрoсть ветра ниже в 1.5-2 раза). Если метеoстанция нахoдится в гoрoде или в лесу, тo скoрoсть ветра занижена на 2-4 м/с пo сравнению с oткрытым местoм. Скoрoсть ветра над акватoриями крупных рек и oзёр, а также на вершинах хoлмoв на 2-5 м/с выше, чем в oбычных услoвиях.
Атмoсфернoе давление в разных тoчках местнoсти мoжет значительнo oтличаться oт давления на метеoстанции, в зависимoсти oт услoвий рельефа (при пoдъёме на 10 м давление пoнижается примернo на 1 мм рт.ст.).